15min,AgWx,beryljct,423,22JUN2019:00:00:00,49.0,12.93,48.1,47.6,47.8,48.1,47.4,56,57,55,0.626,32.8,33.1,32.6,5.305,5.5,49,6.7,8.2,0.00014,0.00021,70.6,70.5,10,0,.,.,16.06,0.00,0.00
15min,AgWx,beryljct,423,22JUN2019:00:15:00,48.4,12.93,46.5,46.0,46.6,47.6,46.0,58,60,56,0.630,32.8,33.0,32.5,4.056,3.5,55,7.7,5.5,0.00002,0.00005,70.3,70.4,10,0,.,.,16.07,0.00,0.00
15min,AgWx,beryljct,423,22JUN2019:00:30:00,48.0,12.9,47.7,48.0,47.3,48.6,46.0,56,60,54,0.629,32.5,32.8,32.2,5.546,5.0,16,14,7.3,0.00012,0.00018,70.1,70.3,11,0,.,.,16.07,0.00,0.00
15min,AgWx,beryljct,423,22JUN2019:00:45:00,47.6,12.89,45.4,44.1,45.4,47.8,43.8,62,67,55,0.644,33.2,33.6,32.7,0.811,2.6,81,38,5.5,-0.00005,-0.00005,69.8,70.3,10,0,.,.,16.07,0.00,0.00
15min,AgWx,beryljct,423,22JUN2019:01:00:00,46.6,12.9,44.6,44.3,44.6,45.3,44.0,64,67,62,0.639,33.2,33.8,32.8,4.275,1.9,68,19,4.6,-0.00012,-0.00014,69.5,70.2,10,0,.,.,16.07,0.00,0.00
15min,AgWx,beryljct,423,22JUN2019:01:15:00,46.0,12.89,45.6,45.6,45.0,45.7,44.4,63,65,61,0.633,33.0,33.4,32.7,4.801,4.4,61,9.6,6.4,0.00005,0.00008,69.2,70.1,10,0,.,.,16.07,0.00,0.00
15min,AgWx,beryljct,423,22JUN2019:01:30:00,45.7,12.89,43.8,44.3,44.8,45.7,44.0,62,64,61,0.616,32.5,32.9,32.1,3.595,4.1,39,8.8,6.8,0.00004,0.00007,68.9,70.0,10,0,.,.,16.07,0.00,0.00
15min,AgWx,beryljct,423,22JUN2019:01:45:00,45.3,12.87,43.7,43.4,44.1,45.2,43.2,63,65,60,0.614,32.2,32.5,32.1,2.587,3.2,24,7.2,4.2,-0.00002,-0.00000,68.6,69.9,10,0,.,.,16.07,0.00,0.00
15min,AgWx,beryljct,423,22JUN2019:02:00:00,44.6,12.87,42.1,42.3,42.8,43.7,41.4,68,74,63,0.644,32.7,33.8,31.9,3.31,2.4,339,26,3.5,-0.00008,-0.00009,68.3,69.8,10,0,.,.,16.07,0.00,0.00
15min,AgWx,beryljct,423,22JUN2019:02:15:00,44.0,12.87,43.6,43.2,42.7,43.7,41.2,69,73,65,0.652,33.2,33.8,32.7,3.201,4.3,297,6.1,7.7,0.00000,0.00003,68.0,69.7,10,0,.,.,16.07,0.00,0.00
15min,AgWx,beryljct,423,22JUN2019:02:30:00,43.6,12.85,43.6,43.4,43.3,43.9,42.0,69,73,67,0.659,33.9,34.4,33.5,3.288,3.4,308,3.7,4.1,-0.00004,-0.00003,67.8,69.7,10,0,.,.,16.08,0.00,0.00
15min,AgWx,beryljct,423,22JUN2019:02:45:00,43.2,12.86,42.4,42.6,43.0,43.8,42.1,69,73,67,0.640,33.6,34.2,33.1,4.845,4.5,314,4.5,5.3,0.00001,0.00003,67.5,69.5,10,0,.,.,16.08,0.00,0.00
15min,AgWx,beryljct,423,22JUN2019:03:00:00,42.9,12.82,41.5,42.0,42.2,42.6,41.7,71,75,69,0.623,33.6,34.4,32.5,3.902,3.4,320,8.4,5.0,-0.00004,-0.00004,67.2,69.4,9,0,.,.,16.08,0.00,0.00
15min,AgWx,beryljct,423,22JUN2019:03:15:00,42.5,12.85,40.2,40.5,40.8,41.8,40.1,71,73,69,0.610,32.2,32.5,31.9,3.946,4.0,339,3.9,5.0,-0.00002,-0.00000,67.0,69.3,10,0,.,.,16.07,0.00,0.00
15min,AgWx,beryljct,423,22JUN2019:03:30:00,42.0,12.84,42.0,42.0,40.9,42.4,39.6,69,73,65,0.602,31.6,31.9,31.0,2.959,3.5,1.8,17,6.1,-0.00003,-0.00002,66.7,69.2,10,0,.,.,16.08,0.00,0.00
15min,AgWx,beryljct,423,22JUN2019:03:45:00,41.7,12.84,41.5,42.3,41.3,42.8,40.1,67,69,64,0.589,31.2,31.6,30.8,4.099,3.9,25,19,6.2,-0.00001,0.00001,66.4,69.1,9,0,.,.,16.08,0.00,0.00
15min,AgWx,beryljct,423,22JUN2019:04:00:00,41.6,12.82,38.7,39.3,40.9,42.4,39.3,69,73,64,0.593,31.5,31.9,31.0,3.617,4.1,352,26,6.5,-0.00000,0.00002,66.2,69.0,10,0,.,.,16.08,0.00,0.00
15min,AgWx,beryljct,423,22JUN2019:04:15:00,41.0,12.82,38.4,38.8,38.8,39.1,38.6,75,77,73,0.595,31.7,32.1,31.2,3.31,3.7,302,5.2,4.8,-0.00005,-0.00004,66.0,68.9,10,0,.,.,16.08,0.00,0.00
15min,AgWx,beryljct,423,22JUN2019:04:30:00,40.4,12.82,39.3,38.6,38.8,39.5,38.1,75,78,72,0.578,31.5,32.1,30.6,1.71,3.6,333,29,5.7,0.00017,0.00030,65.7,68.8,9,0,.,.,16.08,0.00,0.00
15min,AgWx,beryljct,423,22JUN2019:04:45:00,39.9,12.81,40.8,40.3,39.4,40.3,38.6,71,73,69,0.583,30.8,31.1,30.4,2.499,2.9,334,13,4.3,0.00017,0.00029,65.5,68.6,10,0,.,.,16.08,0.00,0.00
15min,AgWx,beryljct,423,22JUN2019:05:00:00,39.4,12.81,39.5,39.0,39.0,40.8,37.3,70,74,67,0.575,30.2,30.8,29.6,2.105,1.9,36,30,3.5,0.00012,0.00021,65.2,68.5,10,0,.,.,16.08,0.00,0.00
15min,AgWx,beryljct,423,22JUN2019:05:15:00,38.8,12.8,36.9,37.1,37.8,39.0,37.1,73,77,70,0.575,30.0,30.6,29.6,1.907,2.7,327,12,3.4,0.00016,0.00026,65.0,68.4,10,4,.,.,16.08,0.00,0.00
15min,AgWx,beryljct,423,22JUN2019:05:30:00,38.4,12.82,38.3,38.2,37.5,38.2,37.0,75,77,74,0.581,30.4,30.9,30.0,1.995,2.9,325,5.8,4.2,0.00023,0.00033,64.8,68.3,10,22,.,.,16.08,0.00,0.00
15min,AgWx,beryljct,423,22JUN2019:05:45:00,38.4,12.84,38.8,38.5,38.3,38.7,38.0,76,78,74,0.605,31.5,32.1,30.8,2.236,0.7,315,0.5,2.2,0.00030,0.00034,64.5,68.2,9,58,.,.,16.08,0.00,0.00
15min,AgWx,beryljct,423,22JUN2019:06:00:00,39.0,12.87,40.4,40.5,39.4,40.6,38.5,73,76,70,0.601,31.6,31.9,31.1,0,1.9,329,13,3.1,0.00045,0.00055,64.3,68.1,10,88,.,.,16.08,0.00,0.00
15min,AgWx,beryljct,423,22JUN2019:06:15:00,40.5,12.84,42.3,41.8,40.9,41.8,40.3,71,73,69,0.641,32.4,33.6,31.1,3.069,1.3,42,24,3.5,0.00058,0.00067,64.1,68.0,10,120,.,.,16.07,0.00,0.00
15min,AgWx,beryljct,423,22JUN2019:06:30:00,42.4,12.86,43.7,43.4,42.6,43.4,41.8,68,71,64,0.614,32.9,33.4,32.1,4.253,3.7,52,7.1,6.3,0.00085,0.00106,63.8,67.8,10,160,.,.,16.08,0.00,0.00
15min,AgWx,beryljct,423,22JUN2019:06:45:00,44.4,12.87,46.0,45.8,44.7,45.8,43.5,61,65,57,0.597,32.2,33.0,31.3,7.432,4.9,46,9.3,7.7,0.00117,0.00150,63.7,67.7,10,211,.,.,16.07,0.00,0.00
15min,AgWx,beryljct,423,22JUN2019:07:00:00,46.5,12.87,47.1,46.8,46.3,46.9,45.8,57,59,56,0.638,32.1,33.4,31.0,4.516,6.2,68,12,8.7,0.00149,0.00194,63.5,67.6,10,262,.,.,16.07,0.00,0.00
15min,AgWx,beryljct,423,22JUN2019:07:15:00,48.5,12.92,48.8,48.7,47.6,48.7,46.8,56,59,54,0.627,32.9,33.6,32.3,7.278,6.1,74,10,8.4,0.00173,0.00221,63.3,67.4,10,309,.,.,16.07,0.00,0.00
15min,AgWx,beryljct,423,22JUN2019:07:30:00,50.4,12.93,49.9,50.4,49.7,50.4,48.7,50,54,48,0.605,32.0,33.3,30.9,11.16,7.7,57,12,11.2,0.00216,0.00282,63.2,67.4,9,368,.,.,16.07,0.00,0.00
15min,AgWx,beryljct,423,22JUN2019:07:45:00,52.1,12.98,50.9,51.3,50.8,51.4,50.0,48,50,47,0.606,31.8,32.7,30.8,9.14,8.6,34,10,11.7,0.00251,0.00328,63.1,67.2,10,421,.,.,16.06,0.00,0.00
15min,AgWx,beryljct,423,22JUN2019:08:00:00,53.5,13.09,52.9,52.6,52.0,52.6,51.2,46,48,44,0.624,31.7,32.6,30.8,10.06,9.6,38,13,14.0,0.00283,0.00371,63.0,67.1,10,471,.,.,16.06,0.00,0.00
15min,AgWx,beryljct,423,22JUN2019:08:15:00,54.9,13.26,54.6,54.4,53.3,54.4,52.5,42,46,40,0.595,30.9,32.2,29.5,12.58,12.3,42,13,16.7,0.00325,0.00437,63.0,67.0,10,522,.,.,16.06,0.00,0.00
15min,AgWx,beryljct,423,22JUN2019:08:30:00,56.2,13.46,54.3,54.8,54.6,55.2,54.1,39,41,38,0.554,30.1,31.5,29.2,17.84,13.6,43,9.4,18.8,0.00364,0.00492,63.0,66.9,9,571,.,.,16.06,0.00,0.00
15min,AgWx,beryljct,423,22JUN2019:08:45:00,57.3,13.81,55.4,54.9,54.9,55.5,54.5,37,39,37,0.542,29.4,30.3,28.8,14.27,14.4,40,10,18.0,0.00391,0.00530,63.1,66.8,9,617,.,.,16.06,0.00,0.00
15min,AgWx,beryljct,423,22JUN2019:09:00:00,58.2,14.31,56.4,56.4,55.7,56.5,54.7,37,38,36,0.570,29.9,31.3,28.9,12.25,12.9,27,11,18.2,0.00412,0.00546,63.2,66.6,9,663,.,.,16.05,0.00,0.00
15min,AgWx,beryljct,423,22JUN2019:09:15:00,59.2,14.29,57.1,56.7,56.6,57.2,56.2,36,37,34,0.567,29.6,30.7,28.5,13.07,12.2,27,17,17.6,0.00439,0.00575,63.2,66.6,9,706,.,.,16.05,0.00,0.00
15min,AgWx,beryljct,423,22JUN2019:09:30:00,60.3,14.3,58.7,57.4,57.3,58.1,56.7,36,37,34,0.583,30.4,32.2,29.1,11.99,10.4,38,15,14.0,0.00459,0.00586,63.4,66.5,9,747,.,.,16.05,0.00,0.00
15min,AgWx,beryljct,423,22JUN2019:09:45:00,61.1,14.3,55.8,57.1,57.5,58.0,56.9,36,38,34,0.565,30.4,32.2,29.4,10.74,11.4,37,14,18.5,0.00480,0.00615,63.6,66.4,9,788,.,.,16.05,0.00,0.00
15min,AgWx,beryljct,423,22JUN2019:10:00:00,61.6,14.25,58.2,58.6,57.9,59.0,56.9,34,36,32,0.545,29.9,31.5,28.2,16.09,12.3,28,17,19.2,0.00504,0.00648,63.8,66.3,9,824,.,.,16.04,0.00,0.00
15min,AgWx,beryljct,423,22JUN2019:10:15:00,62.2,14.3,58.6,59.7,58.7,59.7,57.8,33,35,30,0.583,29.3,31.7,26.8,12.5,12.1,42,19,17.8,0.00530,0.00680,64.0,66.2,9,857,.,.,16.04,0.00,0.00
15min,AgWx,beryljct,423,22JUN2019:10:30:00,62.8,14.22,60.1,59.1,59.6,60.6,58.8,32,34,30,0.529,29.4,32.0,27.6,9.89,12.1,36,19,18.7,0.00554,0.00709,64.3,66.2,9,888,.,.,16.04,0.00,0.00
15min,AgWx,beryljct,423,22JUN2019:10:45:00,63.3,14.2,61.3,60.7,59.9,60.7,59.1,32,34,29,0.552,29.7,32.3,27.9,9.14,11.2,52,14,17.6,0.00569,0.00719,64.6,66.1,9,919,.,.,16.04,0.00,0.00
15min,AgWx,beryljct,423,22JUN2019:11:00:00,64.1,14.17,62.7,62.3,60.9,62.3,59.9,30,32,25,0.545,29.0,31.3,25.0,12.25,10.5,40,20,16.1,0.00593,0.00745,64.9,66.0,9,946,.,.,16.03,0.00,0.00
15min,AgWx,beryljct,423,22JUN2019:11:15:00,64.9,13.87,60.6,61.8,62.0,63.0,60.8,27,29,24,0.508,27.5,30.3,23.8,12.71,9.7,26,20,14.5,0.00619,0.00773,65.3,66.0,9,971,.,.,16.03,0.00,0.00
15min,AgWx,beryljct,423,22JUN2019:11:30:00,65.3,13.79,61.1,60.7,61.4,62.3,60.4,27,28,25,0.468,26.8,28.8,24.8,5.393,10.9,25,22,15.8,0.00626,0.00790,65.6,65.9,9,989,.,.,16.03,0.00,0.00
15min,AgWx,beryljct,423,22JUN2019:11:45:00,65.6,13.76,62.8,63.2,62.0,63.3,60.7,27,30,25,0.504,27.4,30.5,25.1,12.28,10.7,34,23,15.7,0.00636,0.00799,66.0,65.9,9,1004,.,.,16.03,0.00,0.00
15min,AgWx,beryljct,423,22JUN2019:12:00:00,66.0,13.75,61.6,61.8,62.3,63.2,61.4,26,29,24,0.481,26.8,29.3,24.7,12.82,10.3,24,22,15.7,0.00647,0.00811,66.5,65.9,9,1019,.,.,16.03,0.00,0.00
15min,AgWx,beryljct,423,22JUN2019:12:15:00,66.6,13.76,62.9,61.8,62.9,64.0,61.6,26,28,24,0.497,27.3,30.1,24.6,10.19,11.9,19,21,20.1,0.00660,0.00839,66.9,65.9,9,1027,.,.,16.03,0.00,0.00
15min,AgWx,beryljct,423,22JUN2019:12:30:00,66.7,13.84,60.6,62.8,62.3,63.1,61.7,26,28,24,0.499,26.6,28.8,24.3,7.497,9.5,29,23,18.7,0.00650,0.00807,67.3,65.9,9,1030,.,.,16.03,0.00,0.00
15min,AgWx,beryljct,423,22JUN2019:12:45:00,67.2,13.72,61.8,63.8,63.1,64.3,61.8,26,28,23,0.502,27.2,29.9,24.1,11.18,11.6,29,23,18.9,0.00674,0.00852,67.8,65.9,9,1052,.,.,16.03,0.00,0.00
15min,AgWx,beryljct,423,22JUN2019:13:00:00,67.6,13.71,62.1,62.8,63.1,64.4,62.2,25,28,23,0.458,26.9,30.5,24.6,4.494,8.9,25,25,16.6,0.00655,0.00809,68.3,66.0,9,1025,.,.,16.03,0.00,0.00
15min,AgWx,beryljct,423,22JUN2019:13:15:00,67.9,13.74,62.6,63.1,63.3,63.9,62.3,25,29,23,0.483,27.3,30.5,25.0,9.12,9.1,40,23,17.5,0.00654,0.00808,68.8,66.0,9,1021,.,.,16.03,0.00,0.00
15min,AgWx,beryljct,423,22JUN2019:13:30:00,68.1,13.72,62.7,64.1,63.6,64.6,62.7,26,31,22,0.451,28.0,31.5,24.6,10.39,8.0,2.5,46,18.6,0.00651,0.00796,69.3,66.1,9,1018,.,.,16.03,0.00,0.00
15min,AgWx,beryljct,423,22JUN2019:13:45:00,68.6,13.69,64.8,64.4,64.5,65.7,63.7,24,28,22,0.527,27.2,31.5,23.8,8.48,6.2,40,32,13.4,0.00647,0.00775,69.8,66.2,9,1004,.,.,16.03,0.00,0.00
15min,AgWx,beryljct,423,22JUN2019:14:00:00,69.2,13.63,63.0,65.1,64.5,66.3,63.5,25,28,23,0.495,27.6,31.1,24.8,7.651,4.7,79,28,11.8,0.00629,0.00738,70.3,66.2,9,987,.,.,16.03,0.00,0.00
15min,AgWx,beryljct,423,22JUN2019:14:15:00,69.3,13.67,65.8,65.3,64.7,65.8,63.4,24,29,22,0.511,27.4,32.3,25.0,9.91,8.4,31,22,17.9,0.00555,0.00702,70.7,66.3,9,811,.,.,16.03,0.00,0.00
15min,AgWx,beryljct,423,22JUN2019:14:30:00,69.5,13.72,64.6,65.0,65.3,66.3,64.3,23,26,21,0.479,26.6,30.3,24.3,6.73,8.0,32,28,15.2,0.00621,0.00771,71.3,66.4,9,932,.,.,16.03,0.00,0.00
15min,AgWx,beryljct,423,22JUN2019:14:45:00,70.1,13.62,64.7,65.9,65.8,66.7,64.8,24,26,20,0.482,27.5,30.1,24.5,8.64,9.0,48,23,14.0,0.00616,0.00776,71.7,66.5,9,905,.,.,16.03,0.01,0.00
15min,AgWx,beryljct,423,22JUN2019:15:00:00,70.6,13.6,65.7,65.8,66.5,67.5,65.2,20,24,17,0.436,24.4,28.0,20.2,3.354,8.7,26,19,14.1,0.00608,0.00772,72.1,66.7,9,875,.,.,16.03,0.00,0.00
15min,AgWx,beryljct,423,22JUN2019:15:15:00,71.5,13.6,66.3,67.1,66.9,68.0,65.7,20,23,17,0.498,24.9,28.3,20.4,6.599,7.9,21,25,15.2,0.00586,0.00739,72.6,66.8,9,842,.,.,16.03,0.00,0.00
15min,AgWx,beryljct,423,22JUN2019:15:30:00,71.9,13.62,65.2,66.7,66.8,67.6,66.0,22,24,20,0.487,26.4,29.5,23.7,9.62,10.4,38,17,18.6,0.00566,0.00742,72.9,66.9,9,779,.,.,16.03,0.00,0.00
15min,AgWx,beryljct,423,22JUN2019:15:45:00,72.4,13.58,67.1,67.1,67.2,68.0,66.6,19,23,17,0.432,24.1,27.9,20.9,12.67,9.2,28,19,16.2,0.00545,0.00713,73.3,67.1,9,746,.,.,16.03,0.00,0.00
15min,AgWx,beryljct,423,22JUN2019:16:00:00,72.8,13.58,66.5,67.5,67.7,69.0,66.6,19,21,16,0.391,23.9,26.8,19.2,10.15,10.4,37,15,17.3,0.00552,0.00736,73.6,67.2,9,730,.,.,16.03,0.00,0.00
15min,AgWx,beryljct,423,22JUN2019:16:15:00,72.8,13.57,67.6,67.7,67.7,68.2,67.0,17,19,15,0.389,21.7,24.2,18.1,13.5,11.1,15,19,17.0,0.00537,0.00730,73.9,67.4,9,688,.,.,16.03,0.00,0.00
15min,AgWx,beryljct,423,22JUN2019:16:30:00,72.6,13.59,69.3,67.6,67.3,67.7,66.8,17,19,15,0.394,20.4,23.8,17.9,7.388,10.6,17,19,15.5,0.00492,0.00680,74.1,67.5,9,615,.,.,16.03,0.00,0.00
15min,AgWx,beryljct,423,22JUN2019:16:45:00,72.3,13.62,66.8,67.2,67.3,67.9,67.0,17,19,15,0.386,20.7,23.3,18.1,15.85,12.0,35,21,16.7,0.00495,0.00695,74.3,67.7,9,597,.,.,16.04,0.00,0.00
15min,AgWx,beryljct,423,22JUN2019:17:00:00,72.0,13.64,67.0,67.7,67.3,67.8,66.8,17,20,16,0.424,21.6,24.6,19.0,9.12,9.9,18,18,16.3,0.00447,0.00621,74.4,67.8,9,551,.,.,16.03,0.00,0.00
15min,AgWx,beryljct,423,22JUN2019:17:15:00,71.9,13.59,67.2,67.5,67.5,68.0,67.1,17,19,15,0.387,21.1,23.7,18.3,9.34,10.5,30,16,16.4,0.00427,0.00607,74.5,68.0,9,501,.,.,16.04,0.00,0.00
15min,AgWx,beryljct,423,22JUN2019:17:30:00,71.5,13.63,67.5,67.4,67.1,67.5,66.7,16,18,14,0.402,19.2,21.9,16.5,11.88,11.9,23,15,17.3,0.00417,0.00612,74.6,68.2,9,454,.,.,16.03,0.00,0.00
15min,AgWx,beryljct,423,22JUN2019:17:45:00,71.2,13.61,67.0,67.0,67.1,67.6,66.8,17,19,15,0.349,20.1,24.3,17.3,11.6,11.6,24,13,17.8,0.00388,0.00577,74.6,68.3,9,408,.,.,16.04,0.00,0.00
15min,AgWx,beryljct,423,22JUN2019:18:00:00,70.7,13.32,67.2,66.8,66.8,67.1,66.6,16,18,14,0.351,19.2,21.6,16.6,14.16,12.0,13,9.3,17.4,0.00366,0.00558,74.6,68.5,9,359,.,.,16.04,0.00,0.00
15min,AgWx,beryljct,423,22JUN2019:18:15:00,70.2,13.24,66.5,66.5,66.8,67.1,66.5,16,17,15,0.324,19.7,21.2,16.8,15.48,11.3,17,17,17.0,0.00329,0.00512,74.6,68.6,9,308,.,.,16.03,0.00,0.00
15min,AgWx,beryljct,423,22JUN2019:18:30:00,69.6,13.19,66.1,66.2,66.3,66.6,66.0,16,18,14,0.351,18.2,21.0,15.9,11.6,11.7,10,10,16.2,0.00308,0.00495,74.5,68.7,10,260,.,.,16.04,0.00,0.00
15min,AgWx,beryljct,423,22JUN2019:18:45:00,69.0,13.18,65.6,65.8,65.9,66.3,65.7,15,16,14,0.313,16.7,19.1,14.9,11.86,11.5,16,15,16.5,0.00279,0.00462,74.4,68.9,9,213,.,.,16.03,0.00,0.00
15min,AgWx,beryljct,423,22JUN2019:19:00:00,68.3,13.16,64.2,64.7,65.2,65.7,64.7,16,18,14,0.363,17.5,19.8,15.6,7.168,9.9,22,12,14.0,0.00226,0.00385,74.3,69.0,10,167,.,.,16.04,0.00,0.00
15min,AgWx,beryljct,423,22JUN2019:19:15:00,67.4,13.13,62.6,63.6,64.4,65.0,63.6,18,20,17,0.402,20.0,21.9,18.5,6.686,8.4,22,9.6,12.2,0.00109,0.00140,74.2,69.1,10,124,.,.,16.04,0.00,0.00
15min,AgWx,beryljct,423,22JUN2019:19:30:00,66.2,13.13,62.4,62.3,62.9,63.4,62.3,21,23,19,0.409,22.0,23.9,20.3,7.3,6.5,22,7.9,10.0,0.00080,0.00108,74.0,69.2,9,85,.,.,16.04,0.00,0.00
15min,AgWx,beryljct,423,22JUN2019:19:45:00,64.7,13.11,60.4,60.2,61.2,62.3,60.2,22,24,21,0.419,22.6,23.5,21.7,5.459,5.7,20,7.5,7.5,0.00062,0.00085,73.8,69.3,10,50,.,.,16.03,0.00,0.00
15min,AgWx,beryljct,423,22JUN2019:20:00:00,62.7,13.08,56.9,57.9,58.9,60.2,57.9,25,27,23,0.445,23.0,24.3,21.8,4.187,5.4,25,9.8,7.6,0.00047,0.00066,73.6,69.4,10,15,.,.,16.04,0.00,0.00
15min,AgWx,beryljct,423,22JUN2019:20:15:00,60.4,13.06,54.9,55.0,56.4,58.0,54.9,30,33,27,0.484,25.3,26.5,23.9,3.223,4.4,38,6.1,7.0,0.00029,0.00043,73.3,69.4,9,3,.,.,16.05,0.01,0.00
15min,AgWx,beryljct,423,22JUN2019:20:30:00,58.0,13.05,53.7,53.0,54.4,55.9,52.9,35,44,30,0.551,27.4,31.5,24.7,3.771,2.2,21,23,3.9,-0.00001,0.00002,73.1,69.4,10,0,.,.,16.04,0.00,0.00
15min,AgWx,beryljct,423,22JUN2019:20:45:00,55.7,13.03,54.4,53.5,52.6,53.8,51.3,40,48,34,0.480,28.9,32.5,26.1,2.17,2.8,337,12,4.1,0.00005,0.00011,72.8,69.5,10,0,.,.,16.05,0.01,0.00
15min,AgWx,beryljct,423,22JUN2019:21:00:00,54.0,13.02,51.5,51.8,53.0,54.0,51.8,34,35,32,0.462,25.1,26.0,24.6,2.74,3.0,43,19,5.3,0.00010,0.00018,72.5,69.5,10,0,.,.,16.05,0.00,0.00
15min,AgWx,beryljct,423,22JUN2019:21:15:00,52.8,13.03,51.2,50.5,52.0,53.1,50.4,34,43,31,0.518,24.5,29.0,22.5,1.885,2.5,20,19,3.9,0.00003,0.00009,72.2,69.6,10,0,.,.,16.05,0.00,0.00
15min,AgWx,beryljct,423,22JUN2019:21:30:00,51.6,13,52.4,51.4,50.9,51.4,50.3,38,41,36,0.467,26.3,27.7,25.2,0.658,0.4,348,0.0,1.6,-0.00031,-0.00046,71.9,69.6,9,0,.,.,16.05,0.00,0.00
15min,AgWx,beryljct,423,22JUN2019:21:45:00,50.7,13,53.4,52.9,52.1,52.9,51.1,34,37,31,0.421,24.2,25.7,23.0,0.767,0.6,348,0.0,1.3,-0.00028,-0.00040,71.6,69.6,10,0,.,.,16.05,0.01,0.00
15min,AgWx,beryljct,423,22JUN2019:22:00:00,50.1,12.98,52.1,51.8,52.2,52.9,51.8,33,35,31,0.452,24.2,25.4,23.0,0.526,0.7,355,8.0,2.3,-0.00025,-0.00035,71.2,69.5,10,0,.,.,16.05,0.00,0.00
15min,AgWx,beryljct,423,22JUN2019:22:15:00,49.7,12.97,50.0,50.7,51.8,52.2,50.7,32,36,30,0.457,22.7,24.9,21.4,2.762,2.1,7.9,3.8,3.1,-0.00003,0.00001,70.9,69.5,9,0,.,.,16.05,0.00,0.00
15min,AgWx,beryljct,423,22JUN2019:22:30:00,49.3,12.96,47.3,48.0,49.6,50.8,48.0,36,40,33,0.428,23.6,26.1,21.9,3.113,2.9,10,10,3.9,0.00007,0.00014,70.6,69.5,9,0,.,.,16.05,0.00,0.00
15min,AgWx,beryljct,423,22JUN2019:22:45:00,48.6,12.96,44.4,44.3,46.3,47.9,44.3,40,50,38,0.474,23.4,27.2,22.2,3.376,3.5,14,20,4.4,0.00010,0.00016,70.2,69.5,10,0,.,.,16.06,0.00,0.00
15min,AgWx,beryljct,423,22JUN2019:23:00:00,47.2,12.95,42.7,42.6,42.5,44.3,41.8,53,57,48,0.485,26.6,27.6,25.5,4.976,4.3,312,6.4,5.9,0.00008,0.00013,69.9,69.4,10,0,.,.,16.06,0.00,0.00
15min,AgWx,beryljct,423,22JUN2019:23:15:00,46.1,12.92,44.6,44.3,44.1,46.8,42.1,49,55,39,0.488,25.9,27.2,23.3,4.867,3.6,317,18,5.2,0.00006,0.00011,69.6,69.4,10,0,.,.,16.06,0.00,0.00
15min,AgWx,beryljct,423,22JUN2019:23:30:00,45.4,12.92,44.7,45.5,44.4,46.1,43.2,49,55,43,0.492,26.2,28.1,24.3,3.003,3.5,320,11,5.9,0.00006,0.00011,69.2,69.3,10,0,.,.,16.06,0.00,0.00
15min,AgWx,beryljct,423,22JUN2019:23:45:00,45.2,12.91,44.5,46.4,45.9,47.3,45.0,44,50,38,0.533,25.1,28.7,21.8,3.201,4.3,333,8.9,6.3,0.00014,0.00021,68.9,69.3,10,0,.,.,16.06,0.00,0.00
15min,AgWx,bigpiney,439,22JUN2019:00:00:00,34.6,12.71,30.0,30.1,31.2,31.9,30.1,80,86,77,0.468,25.9,27.1,25.1,2.346,1.8,228,40,4.8,0.00002,0.00003,47.9,47.8,54,0,0,0.0,3.39,0.00,0.00
15min,AgWx,bigpiney,439,22JUN2019:00:15:00,34.1,12.7,31.0,30.8,30.2,30.8,29.8,85,86,83,0.489,26.2,26.7,25.5,2.872,3.3,237,7.8,4.5,0.00003,0.00004,47.9,47.8,54,0,0,0.0,3.39,0.00,0.00
15min,AgWx,bigpiney,439,22JUN2019:00:30:00,33.8,12.68,30.4,30.1,30.6,31.0,30.1,86,87,84,0.488,26.9,27.1,26.5,3.266,2.5,263,11,3.7,0.00002,0.00003,47.8,47.8,54,0,0,0.0,3.39,0.00,0.00
15min,AgWx,bigpiney,439,22JUN2019:00:45:00,33.5,12.67,32.0,31.8,30.8,31.8,30.1,82,86,76,0.458,25.8,26.6,24.9,2.938,3.7,259,5.6,4.4,0.00004,0.00006,47.8,47.8,54,0,0,0.0,3.39,0.00,0.00
15min,AgWx,bigpiney,439,22JUN2019:01:00:00,33.4,12.66,31.0,30.8,31.2,31.7,30.8,75,76,74,0.434,24.3,24.9,23.7,2.959,2.7,274,14,4.2,0.00005,0.00007,47.7,47.8,54,0,0,0.0,3.39,0.00,0.00
15min,AgWx,bigpiney,439,22JUN2019:01:15:00,33.2,12.65,30.9,30.4,30.9,31.4,30.1,75,80,72,0.454,23.9,24.9,23.5,1.666,2.5,252,33,4.0,0.00005,0.00007,47.6,47.7,54,0,0,0.0,3.39,0.00,0.00
15min,AgWx,bigpiney,439,22JUN2019:01:30:00,33.0,12.64,30.5,30.5,31.0,31.4,30.4,77,80,75,0.460,24.5,25.1,24.0,2.192,1.3,197,18,2.5,0.00001,0.00002,47.6,47.7,54,0,0,0.0,3.39,0.00,0.00
15min,AgWx,bigpiney,439,22JUN2019:01:45:00,32.9,12.63,31.5,31.0,30.6,31.1,30.3,81,82,80,0.472,25.5,26.0,25.1,1.82,2.1,199,8.6,3.0,0.00002,0.00003,47.5,47.8,54,0,0,0.0,3.39,0.00,0.00
15min,AgWx,bigpiney,439,22JUN2019:02:00:00,32.8,12.62,32.4,31.8,31.9,32.5,31.0,75,81,72,0.448,24.8,25.7,24.3,2.631,2.2,242,15,3.2,0.00004,0.00006,47.4,47.7,54,0,0,0.0,3.39,0.00,0.00
15min,AgWx,bigpiney,439,22JUN2019:02:15:00,32.8,12.59,32.0,31.5,31.6,31.8,31.4,75,76,73,0.456,24.6,24.9,24.2,2.258,2.2,262,7.4,3.0,0.00004,0.00006,47.4,47.7,54,0,0,0.0,3.39,0.00,0.00
15min,AgWx,bigpiney,439,22JUN2019:02:30:00,32.7,12.58,30.3,30.0,30.8,31.6,29.9,78,80,76,0.444,24.7,25.2,24.1,1.776,1.6,94,75,3.0,0.00002,0.00003,47.3,47.7,54,0,0,0.0,3.39,0.00,0.00
15min,AgWx,bigpiney,439,22JUN2019:02:45:00,32.6,12.57,30.5,30.0,30.6,31.4,30.0,78,81,74,0.455,24.4,24.8,23.9,2.28,1.1,91,20,3.1,0.00000,0.00001,47.2,47.6,54,0,0,0.0,3.39,0.00,0.00
15min,AgWx,bigpiney,439,22JUN2019:03:00:00,32.4,12.55,31.7,31.8,31.5,32.4,30.0,74,81,69,0.450,24.3,25.2,23.4,0,1.2,99,12,2.2,0.00001,0.00002,47.1,47.6,54,0,0,0.0,3.39,0.00,0.00
15min,AgWx,bigpiney,439,22JUN2019:03:15:00,32.3,12.52,30.2,30.3,31.1,31.8,30.3,77,82,73,0.468,24.9,25.6,24.2,2.411,1.8,290,59,2.4,0.00002,0.00004,47.1,47.5,54,0,0,0.0,3.39,0.00,0.00
15min,AgWx,bigpiney,439,22JUN2019:03:30:00,32.3,12.51,30.7,29.9,30.0,30.3,29.7,84,86,82,0.475,25.8,26.3,25.5,1.644,2.0,218,7.9,3.1,0.00001,0.00002,47.0,47.6,54,0,0,0.0,3.39,0.00,0.00
15min,AgWx,bigpiney,439,22JUN2019:03:45:00,32.2,12.49,31.5,30.7,30.6,30.9,30.0,82,85,81,0.484,25.9,26.3,25.6,2.872,2.6,202,9.3,3.3,0.00003,0.00004,46.9,47.5,54,0,0,0.0,3.39,0.00,0.00
15min,AgWx,bigpiney,439,22JUN2019:04:00:00,32.3,12.49,32.7,31.3,30.8,31.3,30.6,85,86,83,0.500,26.7,27.3,26.3,2.499,2.1,185,7.7,2.9,0.00001,0.00002,46.9,47.6,54,0,0,0.0,3.39,0.00,0.00
15min,AgWx,bigpiney,439,22JUN2019:04:15:00,32.4,12.47,32.0,31.7,31.7,32.2,31.3,83,84,80,0.496,26.9,27.5,26.5,2.674,1.9,185,8.8,2.8,0.00002,0.00003,46.8,47.5,54,0,0,0.0,3.39,0.00,0.00
15min,AgWx,bigpiney,439,22JUN2019:04:30:00,32.6,12.46,32.3,31.4,31.2,31.7,30.8,84,86,82,0.509,26.9,27.6,26.4,2.784,2.5,180,9.4,3.8,0.00002,0.00003,46.7,47.5,54,0,0,0.0,3.39,0.00,0.00
15min,AgWx,bigpiney,439,22JUN2019:04:45:00,32.7,12.46,32.2,32.1,31.2,32.1,30.6,84,85,79,0.483,26.9,27.6,26.2,1.995,2.4,210,25,4.8,0.00002,0.00003,46.6,47.4,54,2,0,0.0,3.39,0.00,0.00
15min,AgWx,bigpiney,439,22JUN2019:05:00:00,32.8,12.47,31.3,31.0,31.2,32.0,31.0,82,83,79,0.484,26.2,26.4,25.9,3.047,2.9,208,12,3.8,0.00001,0.00007,46.5,47.4,54,5,0,0.0,3.39,0.00,0.00
15min,AgWx,bigpiney,439,22JUN2019:05:15:00,32.8,12.49,32.1,31.6,31.2,31.6,30.9,83,84,83,0.499,26.7,27.2,26.3,1.776,2.6,198,10,3.7,-0.00004,0.00001,46.5,47.4,54,17,0,0.0,3.39,0.00,0.00
15min,AgWx,bigpiney,439,22JUN2019:05:30:00,32.8,12.52,32.2,31.6,31.3,31.6,31.1,84,85,83,0.507,27.1,27.6,26.7,3.201,3.1,193,8.4,4.2,0.00004,0.00010,46.4,47.4,54,33,0,0.0,3.39,0.00,0.00
15min,AgWx,bigpiney,439,22JUN2019:05:45:00,33.0,12.57,33.3,32.7,32.1,32.7,31.6,81,84,79,0.496,27.0,27.4,26.8,2.696,3.6,189,10,5.1,0.00015,0.00023,46.3,47.4,54,56,0,0.0,3.39,0.00,0.00
15min,AgWx,bigpiney,439,22JUN2019:06:00:00,33.3,12.65,34.6,34.3,33.7,34.3,32.7,77,79,75,0.502,27.2,27.7,26.8,2.959,2.4,206,23,3.7,0.00025,0.00034,46.2,47.3,54,83,0,0.0,3.39,0.00,0.00
15min,AgWx,bigpiney,439,22JUN2019:06:15:00,33.9,12.73,37.1,36.8,35.4,36.8,34.0,70,78,62,0.476,26.6,28.1,25.1,2.477,2.9,230,16,4.8,0.00043,0.00056,46.1,47.3,54,115,0,0.0,3.39,0.00,0.00
15min,AgWx,bigpiney,439,22JUN2019:06:30:00,34.8,12.86,37.7,37.4,37.0,37.4,36.6,68,72,63,0.544,27.4,29.2,25.5,2.411,2.8,237,10,4.8,0.00056,0.00071,46.1,47.2,54,135,0,0.0,3.39,0.00,0.00
15min,AgWx,bigpiney,439,22JUN2019:06:45:00,36.0,13.16,40.6,40.4,38.5,40.4,37.4,67,72,59,0.531,28.4,29.1,26.8,1.578,2.4,227,12,3.4,0.00087,0.00103,46.0,47.3,54,238,0,0.0,3.39,0.00,0.00
15min,AgWx,bigpiney,439,22JUN2019:07:00:00,38.3,13.27,42.3,42.1,41.6,42.7,40.4,54,62,47,0.471,26.3,28.3,23.4,0.833,0.9,164,90,2.3,0.00140,0.00156,45.9,47.2,54,358,0,0.0,3.39,0.00,0.00
15min,AgWx,bigpiney,439,22JUN2019:07:15:00,40.5,13.3,43.5,42.5,41.9,42.6,41.6,50,52,48,0.448,24.4,25.7,23.2,0.614,1.6,79,37,3.2,0.00126,0.00146,45.8,47.2,54,288,0,0.0,3.39,0.00,0.00
15min,AgWx,bigpiney,439,22JUN2019:07:30:00,42.7,13.51,45.1,43.5,43.1,43.8,42.6,51,55,47,0.524,26.3,28.2,24.1,1.885,2.9,79,27,6.1,0.00182,0.00213,45.8,47.1,54,413,0,0.0,3.39,0.00,0.00
15min,AgWx,bigpiney,439,22JUN2019:07:45:00,44.7,13.79,44.2,44.2,43.9,44.5,43.5,53,56,48,0.511,27.9,29.6,25.9,5.437,3.9,92,20,6.9,0.00225,0.00264,45.7,47.1,54,500,0,0.0,3.39,0.00,0.00
15min,AgWx,bigpiney,439,22JUN2019:08:00:00,46.5,14.04,45.8,45.2,44.4,45.2,44.1,51,54,49,0.528,27.4,28.8,26.1,3.113,3.7,100,23,6.6,0.00249,0.00290,45.6,47.1,54,544,0,0.0,3.39,0.00,0.00
15min,AgWx,bigpiney,439,22JUN2019:08:15:00,48.0,14.58,45.5,46.0,45.5,46.5,44.9,50,53,46,0.503,27.8,30.0,25.7,3.749,3.3,53,38,7.0,0.00276,0.00317,45.6,47.0,54,587,0,0.0,3.39,0.00,0.00
15min,AgWx,bigpiney,439,22JUN2019:08:30:00,49.6,14.49,47.1,47.7,46.7,48.1,46.0,48,52,42,0.479,27.8,30.8,24.5,2.828,3.2,11,39,7.1,0.00294,0.00337,45.5,47.0,54,607,0,0.0,3.39,0.00,0.00